Location: Prescott
(34.5400°N, 112.4680°W)
Time: 17:41:32
(UTC-07:00)

Amateur Radio Satellites - All Passes

Search period start: 21 January 2018 17:11
Search period end: 22 January 2018 17:11
Location: Prescott, 34.5400°N, 112.4680°W

Satellite Date Start Highest point End Downlink Frequencies (MHz)
Time Altitude Azimuth
M-CUBED/EXP-1 PRIME 21 Jan 17:12:58 17:16:37 25° 258° (WSW) 17:20:07 437.505
HO-68 21 Jan 17:17:35 17:22:38 21° 61° (ENE) 17:27:41 435.675
XW-2B 21 Jan 17:18:00 17:21:19 28° 73° (ENE) 17:24:37 145.730 - 145.750
SRMSAT 21 Jan 17:19:00 17:21:55 14° 192° (SSW) 17:24:50 437.500
NO-84 21 Jan 17:22:49 17:25:29 25° 317° (NW) 17:28:02 435.350 FM
DOVE 4 21 Jan 17:42:01 17:44:37 16° 265° (W) 17:47:11 437.250
LilacSat-2 21 Jan 17:46:40 17:50:31 81° 77° (ENE) 17:54:23 437.200
XW-2C 21 Jan 17:47:48 17:51:37 76° 77° (ENE) 17:55:27 145.795 - 145.815
CUTE-I 21 Jan 17:55:57 18:01:14 72° 74° (ENE) 18:06:32 437.470
PCSat 21 Jan 18:02:06 18:04:55 14° 48° (NE) 18:07:44 145.827
KKS-1 21 Jan 18:04:15 18:08:43 80° 284° (WNW) 18:13:10 437.445
STARS 21 Jan 18:17:44 18:22:04 52° 100° (E) 18:26:22 437.465
KAITUO 1B 21 Jan 18:20:07 18:23:49 56° 259° (W) 18:27:32 145.475/437.950
XW-2F 21 Jan 18:23:37 18:27:10 37° 262° (W) 18:30:43 145.980 - 146.000
SEEDS 21 Jan 18:25:59 18:29:40 30° 72° (ENE) 18:33:20 437.485
BEESAT 3 21 Jan 18:26:32 18:30:03 32° 56° (NE) 18:33:31 437.485
NUDT-PHONESAT 21 Jan 18:29:35 18:33:09 44° 261° (W) 18:36:45 437.300
XW-2D 21 Jan 18:34:35 18:37:43 24° 264° (W) 18:40:52 145.860 - 145.880
XW-2A 21 Jan 18:39:18 18:39:45 10° 68° (ENE) 18:40:13 145.665 - 145.685
CUTE 1.7 + AOD 2 21 Jan 18:39:39 18:43:54 80° 79° (E) 18:48:11 437.475
XW-2B 21 Jan 18:53:11 18:55:28 15° 266° (W) 18:57:45 145.730 - 145.750
CUBEBUG 2 21 Jan 19:00:58 19:05:18 86° 79° (ENE) 19:09:48 437.445
HO-68 21 Jan 19:02:36 19:09:41 66° 257° (WSW) 19:16:49 435.675
UWE-3 21 Jan 19:04:28 19:08:43 49° 74° (ENE) 19:13:05 435.000/436.395/437.385
RS-15 21 Jan 19:12:00 19:22:21 42° 253° (WSW) 19:32:19 29.354- 29.394
BEESAT 2 21 Jan 19:16:43 19:20:15 29° 55° (NE) 19:23:42 435.950
nSIGHT-1 21 Jan 19:25:32 19:28:21 30° 131° (SE) 19:31:10 .
ZACube-1 21 Jan 19:26:05 19:30:17 43° 74° (ENE) 19:34:35 437.345
AO-73 21 Jan 19:32:15 19:36:27 44° 74° (ENE) 19:40:45 145.935
AAUSAT CUBESAT 2 21 Jan 19:39:37 19:43:45 85° 258° (WSW) 19:47:54 437.432
AO-85 21 Jan 19:39:52 19:41:37 12° 46° (NE) 19:43:23 145.980
CUTE-I 21 Jan 19:40:12 19:41:42 11° 269° (W) 19:43:12 437.470
ISS 21 Jan 19:42:30 19:45:24 30° 131° (SE) 19:48:19 437.550
PCSat 21 Jan 19:43:30 19:48:56 79° 245° (WSW) 19:54:19 145.827
STARS 21 Jan 19:56:05 19:57:54 12° 295° (WNW) 19:59:43 437.465
SEEDS 21 Jan 20:02:26 20:05:19 18° 266° (W) 20:08:14 437.485
Oscar 11 21 Jan 20:04:24 20:08:42 64° 76° (ENE) 20:13:01 .
BEESAT 3 21 Jan 20:04:53 20:07:15 16° 251° (WSW) 20:09:36 437.485
STRAND 1 21 Jan 20:05:42 20:10:52 86° 284° (WNW) 20:16:01 437.568
XW-2A 21 Jan 20:08:55 20:12:03 34° 262° (W) 20:15:11 145.665 - 145.685
DELFI C3 21 Jan 20:10:54 20:11:28 10° 67° (ENE) 20:12:01 145.870
FO-29 21 Jan 20:23:12 20:28:16 53° 101° (E) 20:33:29 435.910
Max Valier Satellite 21 Jan 20:36:18 20:38:09 13° 69° (ENE) 20:40:02 145.860
UWE-3 21 Jan 20:43:42 20:45:25 12° 269° (W) 20:47:10 435.000/436.395/437.385
EO-88 21 Jan 20:52:41 20:54:30 13° 69° (ENE) 20:56:19 145.990 - 145.960
BEESAT 2 21 Jan 20:54:56 20:57:42 18° 250° (WSW) 21:00:27 435.950
nSIGHT-1 21 Jan 21:02:04 21:04:31 20° 326° (NNW) 21:07:00 .
ZACube-1 21 Jan 21:04:25 21:06:45 14° 268° (W) 21:09:05 437.345
AO-73 21 Jan 21:10:38 21:12:52 14° 268° (W) 21:15:08 145.935
AO-85 21 Jan 21:17:36 21:22:40 84° 60° (ENE) 21:28:00 145.980
ISS 21 Jan 21:19:17 21:21:53 22° 326° (NNW) 21:24:30 437.550
TIGRISAT 21 Jan 21:32:23 21:36:19 26° 96° (E) 21:40:13 435.000
DELFI C3 21 Jan 21:41:57 21:45:43 47° 261° (W) 21:49:30 145.870
UNISAT 6 21 Jan 21:47:32 21:52:01 43° 99° (E) 21:56:27 437.425
YUBILEINY 21 Jan 21:55:32 22:01:36 21° 81° (E) 22:07:38 435.215
Max Valier Satellite 21 Jan 22:08:16 22:11:38 31° 262° (W) 22:15:00 145.860
LO-87 21 Jan 22:08:35 22:10:21 13° 69° (ENE) 22:12:08 145.935 - 145.965
FO-29 21 Jan 22:10:08 22:12:56 15° 295° (WNW) 22:15:45 435.910
EO-88 21 Jan 22:24:34 22:27:48 30° 262° (W) 22:31:04 145.990 - 145.960
ESTCUBE 1 21 Jan 22:28:42 22:32:20 24° 70° (ENE) 22:35:58 437.505/2401.250
AO-85 21 Jan 23:01:47 23:02:32 10° 254° (WSW) 23:03:17 145.980
TIGRISAT 21 Jan 23:08:58 23:12:51 26° 290° (WNW) 23:16:43 435.000
PRISM 21 Jan 23:15:05 23:19:10 86° 106° (ESE) 23:23:15 437.425
AIST 2D 21 Jan 23:15:43 23:18:56 35° 98° (E) 23:22:06 435.315
UNISAT 6 21 Jan 23:25:22 23:28:19 17° 293° (WNW) 23:31:14 437.425
POLYITAN 1 21 Jan 23:33:41 23:36:25 16° 94° (E) 23:39:09 437.675
LO-87 21 Jan 23:40:20 23:43:26 28° 263° (W) 23:46:33 145.935 - 145.965
SPROUT 21 Jan 23:47:14 23:51:10 39° 73° (ENE) 23:55:08 437.525
NANOSAT C BR1 21 Jan 23:47:45 23:51:01 21° 95° (E) 23:54:15 145.865
YUBILEINY 21 Jan 23:48:40 23:57:28 70° 278° (W) 00:06:15 435.215
NO-84 21 Jan 23:57:31 23:59:54 23° 42° (NE) 00:02:22 435.350 FM
VELOX 1 21 Jan 23:59:22 00:03:09 29° 71° (ENE) 00:06:55 145.980
QB50P2 22 Jan 00:02:23 00:06:27 42° 99° (E) 00:10:30 145.880/145.840
ESTCUBE 1 22 Jan 00:05:12 00:08:58 26° 263° (W) 00:12:46 437.505/2401.250
O/OREOS (USA 219) 22 Jan 00:16:25 00:20:52 63° 107° (ESE) 00:25:19 437.305
DUCHIFAT 1 22 Jan 00:29:59 00:34:12 60° 101° (E) 00:38:23 145.980
EO-79 22 Jan 00:32:41 00:36:59 89° 108° (ESE) 00:41:15 145.935-145.965
50 SAT 22 Jan 00:48:35 00:48:54 10° 68° (ENE) 00:49:12 437.505
POLYITAN 1 22 Jan 01:08:22 01:12:15 33° 288° (WNW) 01:16:05 437.675
AO-91 22 Jan 01:10:07 01:14:04 26° 97° (E) 01:18:18 145.960
NANOSAT C BR1 22 Jan 01:23:05 01:26:38 26° 289° (WNW) 01:30:10 145.865
SPROUT 22 Jan 01:24:58 01:27:10 14° 267° (W) 01:29:24 437.525
BUGSAT 1 22 Jan 01:26:36 01:30:47 57° 100° (E) 01:34:57 437.445
UKube-1 22 Jan 01:33:06 01:37:00 35° 72° (ENE) 01:40:56 .
NO-84 22 Jan 01:34:53 01:36:55 17° 234° (SW) 01:39:01 435.350 FM
VELOX 1 22 Jan 01:36:18 01:39:33 20° 265° (W) 01:42:47 145.980
QB50P2 22 Jan 01:39:36 01:41:49 14° 293° (WNW) 01:44:02 145.880/145.840
Gurwin Techsat 1B 22 Jan 01:41:07 01:45:56 34° 98° (E) 01:50:43 435.225
Oscar 19 22 Jan 01:45:18 01:50:20 51° 100° (E) 01:55:18 437.125/150
DX 1 22 Jan 01:47:09 01:51:29 86° 262° (W) 01:55:49 434.975-435.025
YUBILEINY 22 Jan 01:54:11 01:55:53 11° 298° (WNW) 01:57:36 435.215
nSIGHT-1 22 Jan 01:56:00 01:57:03 11° 27° (NNE) 01:58:08 .
O/OREOS (USA 219) 22 Jan 01:59:21 02:00:40 11° 303° (WNW) 02:01:59 437.305
MOZHAYETS 4 22 Jan 02:03:36 02:07:06 22° 69° (ENE) 02:10:38
FALCONSAT 3 22 Jan 02:07:13 02:08:52 13° 148° (SSE) 02:10:31 435.103
ISS 22 Jan 02:14:05 02:15:24 12° 27° (NNE) 02:16:43 437.550
50 SAT 22 Jan 02:17:39 02:20:16 25° 262° (W) 02:22:54 437.505
BEESAT 22 Jan 02:23:19 02:26:50 21° 68° (ENE) 02:30:22 436.000
AO-7 22 Jan 02:24:09 02:28:14 14° 92° (E) 02:32:19 .
AO-91 22 Jan 02:46:26 02:50:23 28° 288° (WNW) 02:54:37 145.960
BUGSAT 1 22 Jan 03:04:44 03:05:35 11° 295° (WNW) 03:06:26 437.445
UKube-1 22 Jan 03:10:28 03:13:05 16° 266° (W) 03:15:42 .
ITUPSAT 1 22 Jan 03:20:41 03:25:27 86° 76° (ENE) 03:30:16 437.325
Gurwin Techsat 1B 22 Jan 03:21:23 03:25:39 25° 292° (WNW) 03:29:56 435.225
Oscar 19 22 Jan 03:25:59 03:29:10 17° 295° (WNW) 03:32:19 437.125/150
nSIGHT-1 22 Jan 03:30:27 03:33:38 88° 41° (NE) 03:36:48 .
MOZHAYETS 4 22 Jan 03:39:58 03:44:02 31° 263° (W) 03:48:08
FALCONSAT 3 22 Jan 03:43:55 03:47:28 49° 161° (SSE) 03:51:02 435.103
CUBESAT XI-V 22 Jan 03:45:48 03:50:28 69° 76° (ENE) 03:55:07 437.345
ISS 22 Jan 03:49:00 03:52:17 89° 38° (NE) 03:55:33 437.550
BEESAT 22 Jan 04:00:02 04:04:20 34° 262° (W) 04:08:40 436.000
DOVE 4 22 Jan 04:06:02 04:07:52 12° 93° (E) 04:09:44 437.250
AO-7 22 Jan 04:13:27 04:21:52 88° 107° (ESE) 04:30:13 .
ITAMSAT 1 22 Jan 04:33:20 04:38:32 78° 285° (WNW) 04:43:44 435.822/435.867
SO-50 22 Jan 04:43:35 04:47:42 39° 114° (ESE) 04:51:54 436.795
M-CUBED/EXP-1 PRIME 22 Jan 04:54:33 04:57:06 21° 101° (E) 04:59:38 437.505
KKS-1 22 Jan 04:58:28 05:02:47 59° 75° (ENE) 05:07:08 437.445
STARS 22 Jan 05:10:59 05:14:44 29° 71° (ENE) 05:18:30 437.465
FALCONSAT 3 22 Jan 05:22:48 05:26:29 78° 355° (N) 05:30:10 435.103
LilacSat-2 22 Jan 05:25:47 05:26:36 11° 92° (E) 05:27:25 437.200
DOVE 4 22 Jan 05:41:24 05:45:42 50° 285° (WNW) 05:50:13 437.250
KAITUO 1B 22 Jan 05:55:22 05:57:44 16° 95° (E) 06:00:05 145.475/437.950
XW-2F 22 Jan 05:59:00 06:02:07 25° 96° (E) 06:05:13 145.980 - 146.000
NUDT-PHONESAT 22 Jan 06:03:23 06:06:05 19° 95° (E) 06:08:45 437.300
AO-7 22 Jan 06:08:15 06:13:32 19° 305° (NW) 06:18:48 .
XW-2D 22 Jan 06:09:38 06:13:11 40° 99° (E) 06:16:42 145.860 - 145.880
CUTE-I 22 Jan 06:16:44 06:21:40 38° 98° (E) 06:26:35 437.470
SO-50 22 Jan 06:25:05 06:28:17 19° 310° (NW) 06:31:33 436.795
XW-2B 22 Jan 06:27:09 06:30:53 69° 101° (E) 06:34:35 145.730 - 145.750
CUTE 1.7 + AOD 2 22 Jan 06:28:59 06:31:47 17° 94° (E) 06:34:34 437.475
M-CUBED/EXP-1 PRIME 22 Jan 06:29:27 06:31:20 15° 296° (WNW) 06:33:11 437.505
FO-29 22 Jan 06:33:03 06:37:22 18° 66° (ENE) 06:41:23 435.910
HO-68 22 Jan 06:34:43 06:40:49 30° 97° (E) 06:46:52 435.675
STARS 22 Jan 06:47:51 06:51:02 20° 265° (W) 06:54:14 437.465
CUBEBUG 2 22 Jan 06:55:32 06:59:29 25° 95° (E) 07:03:22 437.445
LilacSat-2 22 Jan 06:57:30 07:01:00 38° 286° (WNW) 07:04:29 437.200
XW-2C 22 Jan 06:57:45 07:01:18 41° 286° (WNW) 07:04:49 145.795 - 145.815
UWE-3 22 Jan 06:58:59 07:01:28 14° 92° (E) 07:03:55 435.000/436.395/437.385
FALCONSAT 3 22 Jan 07:01:57 07:05:37 86° 191° (S) 07:09:18 435.103
RS-15 22 Jan 07:16:28 07:27:54 47° 108° (ESE) 07:39:15 29.354- 29.394
STRAND 1 22 Jan 07:17:55 07:23:00 88° 257° (WSW) 07:28:08 437.568
ZACube-1 22 Jan 07:20:09 07:21:37 11° 91° (E) 07:23:03 437.345
AAUSAT CUBESAT 2 22 Jan 07:25:52 07:28:45 18° 95° (E) 07:31:37 437.432
AO-73 22 Jan 07:25:58 07:27:25 11° 91° (E) 07:28:52 145.935
KAITUO 1B 22 Jan 07:28:38 07:31:38 24° 288° (WNW) 07:34:37 145.475/437.950
XW-2F 22 Jan 07:33:37 07:35:59 16° 290° (WNW) 07:38:20 145.980 - 146.000
XW-2A 22 Jan 07:34:20 07:36:23 15° 95° (E) 07:38:26 145.665 - 145.685
NUDT-PHONESAT 22 Jan 07:37:03 07:39:46 20° 289° (WNW) 07:42:29 437.300
XW-2D 22 Jan 07:46:03 07:46:55 11° 293° (WNW) 07:47:45 145.860 - 145.880
SEEDS 22 Jan 07:47:55 07:52:05 85° 283° (WNW) 07:56:13 437.485
Oscar 11 22 Jan 07:56:24 07:58:58 15° 93° (E) 08:01:30 .
CUTE-I 22 Jan 07:57:19 08:01:26 23° 293° (WNW) 08:05:33 437.470
CUTE 1.7 + AOD 2 22 Jan 08:03:56 08:07:38 30° 288° (WNW) 08:11:17 437.475
BEESAT 3 22 Jan 08:14:10 08:15:50 12° 108° (ESE) 08:17:31 437.485
FO-29 22 Jan 08:15:02 08:22:00 66° 258° (WSW) 08:28:10 435.910
HO-68 22 Jan 08:21:54 08:28:37 45° 292° (WNW) 08:35:19 435.675
TIGRISAT 22 Jan 08:28:42 08:31:10 15° 66° (ENE) 08:33:41 435.000
CUBEBUG 2 22 Jan 08:31:57 08:35:58 28° 289° (WNW) 08:39:56 437.445
UWE-3 22 Jan 08:33:38 08:38:06 46° 286° (WNW) 08:42:28 435.000/436.395/437.385
PCSat 22 Jan 08:39:38 08:43:43 22° 106° (ESE) 08:47:49 145.827
FALCONSAT 3 22 Jan 08:41:15 08:44:29 29° 205° (SSW) 08:47:43 435.103
UNISAT 6 22 Jan 08:43:13 08:46:44 24° 69° (ENE) 08:50:21 437.425
ZACube-1 22 Jan 08:53:44 08:58:10 53° 285° (WNW) 09:02:30 437.345
AO-73 22 Jan 08:59:32 09:03:55 52° 286° (WNW) 09:08:13 145.935
AAUSAT CUBESAT 2 22 Jan 09:00:41 09:04:09 27° 288° (WNW) 09:07:37 437.432
BEESAT 2 22 Jan 09:06:20 09:07:42 11° 108° (ESE) 09:09:04 435.950
XW-2A 22 Jan 09:06:29 09:08:58 20° 289° (WNW) 09:11:28 145.665 - 145.685
DELFI C3 22 Jan 09:22:11 09:25:26 25° 96° (E) 09:28:42 145.870
RS-15 22 Jan 09:28:26 09:40:16 51° 308° (NW) 09:52:00 29.354- 29.394
JUGNU 22 Jan 09:28:58 09:31:50 14° 168° (SSE) 09:34:42 437.505
Oscar 11 22 Jan 09:31:13 09:35:10 36° 287° (WNW) 09:39:06 .
Max Valier Satellite 22 Jan 09:41:19 09:44:28 26° 97° (E) 09:47:36 145.860
BEESAT 3 22 Jan 09:49:08 09:52:55 43° 302° (WNW) 09:56:45 437.485
EO-88 22 Jan 09:56:13 09:59:16 25° 97° (E) 10:02:19 145.990 - 145.960
PRISM 22 Jan 10:00:41 10:04:23 35° 72° (ENE) 10:08:05 437.425
TIGRISAT 22 Jan 10:03:14 10:07:24 43° 261° (W) 10:11:43 435.000
YUBILEINY 22 Jan 10:03:27 10:11:53 50° 78° (ENE) 10:20:13 435.215
UNISAT 6 22 Jan 10:19:38 10:23:18 26° 264° (W) 10:27:03 437.425
PCSat 22 Jan 10:21:42 10:26:47 41° 301° (WNW) 10:31:54 145.827
O/OREOS (USA 219) 22 Jan 10:29:50 10:34:18 66° 69° (ENE) 10:38:45 437.305
NANOSAT C BR1 22 Jan 10:38:51 10:39:29 10° 65° (ENE) 10:40:06 145.865
BEESAT 2 22 Jan 10:41:04 10:44:55 47° 302° (WNW) 10:48:50 435.950
QB50P2 22 Jan 10:51:59 10:55:06 20° 69° (ENE) 10:58:13 145.880/145.840
DELFI C3 22 Jan 10:57:12 10:59:57 19° 290° (WNW) 11:02:44 145.870
LO-87 22 Jan 11:10:07 11:13:10 25° 97° (E) 11:16:11 145.935 - 145.965
Max Valier Satellite 22 Jan 11:15:50 11:18:01 15° 290° (WNW) 11:20:11 145.860
JUGNU 22 Jan 11:16:11 11:20:06 19° 178° (S) 11:24:02 437.505
DUCHIFAT 1 22 Jan 11:18:21 11:21:52 27° 71° (ENE) 11:25:25 145.980
AIST 2D 22 Jan 11:18:38 11:22:01 48° 260° (W) 11:25:27 435.315
EO-79 22 Jan 11:21:18 11:25:14 39° 73° (ENE) 11:29:12 145.935-145.965
AO-85 22 Jan 11:29:07 11:32:57 59° 116° (ESE) 11:37:01 145.980
EO-88 22 Jan 11:30:30 11:32:39 15° 290° (WNW) 11:34:47 145.990 - 145.960
PRISM 22 Jan 11:37:33 11:39:43 14° 266° (W) 11:41:53 437.425
SRMSAT 22 Jan 11:42:22 11:43:33 11° 164° (SSE) 11:44:44 437.500
RS-15 22 Jan 11:49:35 11:56:43 17° 337° (NNW) 12:03:47 29.354- 29.394
POLYITAN 1 22 Jan 11:56:26 12:00:39 74° 258° (WSW) 12:04:55 437.675
ESTCUBE 1 22 Jan 12:00:06 12:04:36 85° 103° (ESE) 12:09:04 437.505/2401.250
YUBILEINY 22 Jan 12:01:01 12:08:10 30° 276° (W) 12:15:20 435.215
NANOSAT C BR1 22 Jan 12:10:30 12:14:37 56° 259° (W) 12:18:48 145.865
BUGSAT 1 22 Jan 12:13:08 12:16:24 24° 70° (ENE) 12:19:41 437.445
QB50P2 22 Jan 12:27:03 12:30:39 27° 263° (W) 12:34:19 145.880/145.840
LO-87 22 Jan 12:44:06 12:46:18 16° 290° (WNW) 12:48:29 145.935 - 145.965
DUCHIFAT 1 22 Jan 12:54:21 12:57:28 20° 265° (W) 13:00:35 145.980
Oscar 19 22 Jan 12:58:27 13:03:28 52° 73° (ENE) 13:08:31 437.125/150
Gurwin Techsat 1B 22 Jan 12:58:41 13:03:34 39° 71° (ENE) 13:08:29 435.225
EO-79 22 Jan 12:59:00 13:01:06 14° 267° (W) 13:03:14 145.935-145.965
JUGNU 22 Jan 13:04:56 13:08:23 16° 189° (S) 13:11:50 437.505
SPROUT 22 Jan 13:11:26 13:15:41 64° 285° (WNW) 13:19:56 437.525
AO-85 22 Jan 13:12:22 13:13:49 12° 315° (NW) 13:15:17 145.980
SO-50 22 Jan 13:18:37 13:21:40 17° 49° (NE) 13:24:44 436.795
AO-7 22 Jan 13:19:50 13:24:49 18° 54° (NE) 13:29:49 .
VELOX 1 22 Jan 13:28:07 13:32:32 84° 281° (W) 13:36:56 145.980
SRMSAT 22 Jan 13:28:07 13:31:58 18° 173° (S) 13:35:50 437.500
50 SAT 22 Jan 13:36:13 13:37:30 12° 94° (E) 13:38:47 437.505
DX 1 22 Jan 13:39:26 13:42:43 21° 96° (E) 13:45:58 434.975-435.025
AO-91 22 Jan 13:40:51 13:44:00 37° 261° (W) 13:47:14 145.960
BUGSAT 1 22 Jan 13:48:30 13:51:38 21° 264° (W) 13:54:49 437.445
RS-15 22 Jan 14:10:59 14:16:43 14° 16° (NNE) 14:22:20 29.354- 29.394
ITAMSAT 1 22 Jan 14:12:10 14:14:04 12° 62° (ENE) 14:15:59 435.822/435.867
Gurwin Techsat 1B 22 Jan 14:39:35 14:43:34 22° 265° (W) 14:47:36 435.225
Oscar 19 22 Jan 14:40:03 14:43:02 15° 267° (W) 14:46:01 437.125/150
SO-50 22 Jan 14:57:48 15:02:26 55° 244° (WSW) 15:07:06 436.795
UKube-1 22 Jan 14:58:43 15:03:01 75° 285° (WNW) 15:07:19 .
50 SAT 22 Jan 15:06:42 15:09:09 21° 288° (WNW) 15:11:35 437.505
AO-7 22 Jan 15:08:02 15:16:23 88° 74° (ENE) 15:24:49 .
NO-84 22 Jan 15:10:21 15:11:46 12° 124° (SE) 15:13:09 435.350 FM
DX 1 22 Jan 15:15:08 15:18:50 28° 290° (WNW) 15:22:31 434.975-435.025
SRMSAT 22 Jan 15:16:25 15:20:26 19° 184° (S) 15:24:29 437.500
ITUPSAT 1 22 Jan 15:25:03 15:29:13 29° 97° (E) 15:33:21 437.325
M-CUBED/EXP-1 PRIME 22 Jan 15:36:14 15:39:29 21° 66° (ENE) 15:42:35 437.505
MOZHAYETS 4 22 Jan 15:37:41 15:42:20 80° 103° (ESE) 15:46:55
CUBESAT XI-V 22 Jan 15:46:34 15:50:06 22° 95° (E) 15:53:37 437.345
ITAMSAT 1 22 Jan 15:47:43 15:52:51 72° 257° (WSW) 15:58:02 435.822/435.867
BEESAT 22 Jan 16:02:55 16:07:43 78° 103° (ESE) 16:12:29 436.000
RS-15 22 Jan 16:23:05 16:33:55 41° 48° (NE) 16:44:10 29.354- 29.394
DOVE 4 22 Jan 16:43:21 16:47:40 76° 259° (WSW) 16:51:50 437.250
NO-84 22 Jan 16:45:42 16:48:42 36° 315° (NW) 16:51:32 435.350 FM
XW-2D 22 Jan 16:48:50 16:50:34 13° 68° (ENE) 16:52:17 145.860 - 145.880
KKS-1 22 Jan 16:54:09 16:56:41 15° 94° (E) 16:59:12 437.445
HO-68 22 Jan 17:02:04 17:06:00 16° 58° (ENE) 17:09:55 435.675
ITUPSAT 1 22 Jan 17:02:58 17:06:51 25° 291° (WNW) 17:10:45 437.325
XW-2B 22 Jan 17:05:20 17:08:07 20° 71° (ENE) 17:10:55 145.730 - 145.750
SRMSAT 22 Jan 17:06:23 17:08:54 13° 194° (SSW) 17:11:25 437.500
